This is the latest recevied weather packets stored in our database for station/object K7SPS-10. If no packets are shown the sender has not sent any weather packets the latest 10 day(s).
| Time | Temp. | Humidity | Pressure | Rain* | Wind** | Luminosity | Snow |
|---|---|---|---|---|---|---|---|
| 1777627577 | 6.11° C | 82% | 1020.1 hPa | 0 mm | - | 0 W/m² | - |
| 1777627272 | 6.11° C | 81% | 1020.2 hPa | 0 mm | - | 0 W/m² | - |
| 1777626969 | 5.56° C | 81% | 1020 hPa | 0 mm | - | 0 W/m² | - |
| 1777626665 | 6.11° C | 80% | 1020.2 hPa | 0 mm | - | 0 W/m² | - |
| 1777626361 | 6.11° C | 81% | 1020.6 hPa | 0 mm | - | 0 W/m² | - |
| 1777626060 | 6.11° C | 80% | 1020.2 hPa | 0 mm | - | 0 W/m² | - |
| 1777625755 | 6.11° C | 81% | 1020.1 hPa | 0 mm | - | 0 W/m² | - |
| 1777625451 | 5.56° C | 81% | 1020 hPa | 0 mm | - | 0 W/m² | - |
| 1777625146 | 5.56° C | 80% | 1020.4 hPa | 0 mm | - | 0 W/m² | - |
| 1777624844 | 6.11° C | 79% | 1020.4 hPa | 0 mm | - | 0 W/m² | - |
| 1777624539 | 6.67° C | 78% | 1020.2 hPa | 0 mm | - | 0 W/m² | - |
| 1777624239 | 6.67° C | 77% | 1020.2 hPa | 0 mm | - | 0 W/m² | - |
| 1777623933 | 6.67° C | 78% | 1020.2 hPa | 0 mm | - | 0 W/m² | - |
| 1777623630 | 6.67° C | 77% | 1020.5 hPa | 0 mm | - | 0 W/m² | - |
| 1777623328 | 6.67° C | 76% | 1020.2 hPa | 0 mm | - | 0 W/m² | - |
| 1777623024 | 6.67° C | 77% | 1020.5 hPa | 0 mm | - | 0 W/m² | - |
| 1777622721 | 7.22° C | 76% | 1020.1 hPa | 0 mm | - | 0 W/m² | - |
| 1777622417 | 7.22° C | 75% | 1020.4 hPa | 0 mm | - | 0 W/m² | - |
| 1777622114 | 7.78° C | 74% | 1020.1 hPa | 0 mm | - | 0 W/m² | - |
| 1777621810 | 7.78° C | 75% | 1020.2 hPa | 0 mm | - | 0 W/m² | - |
| 1777621507 | 7.78° C | 75% | 1020 hPa | 0 mm | - | 0 W/m² | - |
| 1777621203 | 8.33° C | 74% | 1019.8 hPa | 0 mm | - | 0 W/m² | - |
| 1777620899 | 8.33° C | 74% | 1020.2 hPa | 0 mm | - | 0 W/m² | - |
| 1777620595 | 7.78° C | 76% | 1019.9 hPa | 0 mm | - | 0 W/m² | - |
| 1777620291 | 7.78° C | 77% | 1020.1 hPa | 0 mm | - | 0 W/m² | - |
* Rain latest hour (hover to see other rain measurements)
** Current wind speed in m/s (hover to see current wind gust speed)